Location: Ammerl�gen
(47.2167°N, 9.6000°E)
Time: 13:08:36
(UTC+00:00)

RS-15 - Pass Details

Date: 13 December 2021
Orbit: 1882 x 2162 km, 64.8° (Epoch: 22 January)

Event Time Altitude Azimuth Distance (km) Brightness Sun altitude
Exits shadow 06:03:43 - 305° (NW) 4,641 9.3 -9.2°
Reaches altitude 10° 06:03:56 10° 306° (NW) 4,590 9.3 -9.1°
Maximum altitude 06:14:43 35° 9° (N) 3,092 9.0 -7.5°
Drops below altitude 10° 06:25:43 10° 72° (ENE) 4,687 10.7 -5.8°
Sets 06:29:47 0° 82° (E) 5,685 11.4 -5.2°
